STARLINK-3057, 49139

Orbit data source: Space-Track

STARLINK-3057, 49139 is a payload satellite owned by SpaceX/Seattle (US) in LEO that was launched on Tue, 14 Sep 2021 UTC via an FALCON 9 launch vehicle from the Air Force Western Test Range (AFWTR). Payload-class satellites include a variety of spacecraft equipped with specific instruments for various scientific and technological missions. These include communications satellites like Starlink; space stations such as the ISS; scientific satellites like the Hubble; Earth observation satellites from companies like Planet Labs, Umbra, and HawkEye 360; GPS; miniature CubeSats for education and research; and military/defense satellites.

Loading next visibility...
Identifier
49139, 2021-082K
Orbit
LEO
Country
Flag of USUS
Related business
Manufacturer
SpaceX/Seattle
Mission
Operational Commercial Communications
Bus & Motor
STARLINK, Unknown motor
Mass
297 kg wet, ~275 kg dry
Launch date (UTC)
2021-09-14 (5 years ago)
Launch vehicle
FALCON 9
Launch site
Air Force Western Test Range (AFWTR)
Object type
Payload
Rocket body
Debris
Shape & HBR
Box + 1 Pan, 10.1 m
Radar Cross Section
13.562 m², Large (>1 m²)

Expand to show TLE details & history
Last TLE update: 2 days ago

TLE from 2 days ago
0 STARLINK-3057
1 49139U 21082K   26171.41668980  .00093459  00000-0  54490-2 0  9992
2 49139  70.0004 354.8008 0004451 251.9418 284.9835 15.11448988  5789
Epoch: 2026-06-20T10:00Z
TLE epoch observation values (Epoch: 2026-06-20T10:00:01.998Z)
Latitude
2.84397°
Longitude
115.13054°
Altitude
533.1 km
Speed
7.597 km/s
True Right ascension
11h 35m 04s
True Declination
2° 49' 35"
Sunlit
Object was in daylight at epoch
Visualization orbit readout
Latitude
Unknown
Longitude
Unknown
Altitude
Unknown
Speed
Unknown
Apparent Right ascension
Unknown
Apparent Declination
Unknown
Sunlit
N/A
Visualization observer readout
Local Sidereal Time
21:49:43
Azimuth
Unknown
Elevation
Unknown
Doppler factor
Unknown
Orbital elements
Apogee altitude
532.791 km
Perigee altitude
526.642 km
Semi-major axis
6,907.853 km
Eccentricity
0.00045
Inclination
70.0004°
RAAN
354.8008°
Arg. of periapsis
251.9418°
True anomaly
284.93422°
Mean anomaly
284.9835°
Eccentric anomaly
284.95886°
Mean motion
3.78032 °/min
Orbital period
95.23 mins
BSTAR
0.005449
Loading maneuver chart data...
Computing Atmospheric mass density...

Documentation

Showing up to 5 results
|